Regional Weather Roundup
Issued by NWS

Home | Current Version | Previous Version | Graphics & Text | Print | Product List | Glossary On
Versions: 1 2 3 4 5 6 7 8 9 10 11 12 13 14 15 16 17 18 19 20 21 22 23 24 25 26 27 28 29 30 31 32 33 34 35 36 37 38 39 40 41 42 43 44 45 46 47 48 49 50
902
ASUS43 KLMK 292002
RWRKY
KENTUCKY REGIONAL WEATHER ROUNDUP
NATIONAL WEATHER SERVICE LOUISVILLE KY
400 PM EDT SUN MAY 29 2016

NOTE "FAIR" INDICATES FEW OR NO CLOUDS BELOW 12,000 FEET
WITH NO SIGNIFICANT WEATHER AND/OR OBSTRUCTIONS TO VISIBILITY.

KYZ001>023-026-027-061>063-070>075-292100-
WESTERN AND SOUTH CENTRAL KENTUCKY

CITY           SKY/WX    TMP DP  RH WIND       PRES   REMARKS
PADUCAH        MOSUNNY   87  65  47 MISG      30.06F
HENDERSON      PTSUNNY   86  66  51 SW9       30.03F
OWENSBORO      MOSUNNY   88  68  51 W8        30.05F HX  91
HOPKINSVILLE   NOT AVBL
BOWLING GREEN  MOSUNNY   87  67  51 S9        30.07F HX  90
GLASGOW        NOT AVBL
$$

KYZ024-025-028>034-038-045-046-053-292100-
NORTH CENTRAL KENTUCKY

CITY           SKY/WX    TMP DP  RH WIND       PRES   REMARKS
LOUISVILLE/SDF MOSUNNY   87  65  47 VRB5      30.04F
LOUISVILLE/LOU MOSUNNY   86  65  49 SW7       30.05F
FORT KNOX      MOSUNNY   85  67  53 SW8       30.05F
$$

KYZ035>037-039>044-047>052-055>060-089>105-292100-
NORTHEAST KENTUCKY

CITY           SKY/WX    TMP DP  RH WIND       PRES   REMARKS
LEXINGTON      MOSUNNY   84  64  50 S8        30.09F
COVINGTON      PTSUNNY   85  65  51 SW10      30.05F
FRANKFORT      MOSUNNY   84  63  49 SW10      30.06F
$$

KYZ054-064>069-076>088-106>120-292100-
SOUTHEAST KENTUCKY

CITY           SKY/WX    TMP DP  RH WIND       PRES   REMARKS
JACKSON        CLOUDY    79  65  62 CALM      30.12F
LONDON         SUNNY     82  62  50 CALM      30.10F
SOMERSET       NOT AVBL
MIDDLESBORO    PTSUNNY   83  65  53 CALM      30.10F
MONTICELLO     CLEAR     84  65  52 NW9       30.11F
$$





USA.gov is the U.S. government's official web portal to all federal, state and local government web resources and services.